Radiation Dose at Monitoring Post of Fukushima Daini Nuclear Power Station
Date,Time,MP-1(microSv/h),MP-2(microSv/h),MP-3(microSv/h),MP-4(microSv/h),MP-5(microSv/h),MP-6(microSv/h),MP-7(microSv/h),Wind Direction,Wind Velocity(m/s),Rain
2018/02/23,00:00,0.338,0.211,0.346,0.327,0.308,0.172,0.103,northwest,2.3,Yes
2018/02/23,00:10,0.337,0.210,0.346,0.327,0.307,0.172,0.103,northwest,2.5,Yes
2018/02/23,00:20,0.340,0.211,0.346,0.328,0.308,0.172,0.102,west-northwest,2.1,Yes
2018/02/23,00:30,0.339,0.210,0.346,0.327,0.307,0.172,0.103,northwest,1.6,Yes
2018/02/23,00:40,0.339,0.210,0.346,0.327,0.307,0.172,0.103,west-northwest,1.5,Yes
2018/02/23,00:50,0.339,0.211,0.345,0.327,0.308,0.172,0.103,northwest,2.1,Yes
2018/02/23,01:00,0.339,0.210,0.346,0.327,0.309,0.172,0.103,northwest,2.1,Yes
2018/02/23,01:10,0.339,0.210,0.345,0.328,0.305,0.172,0.103,west-northwest,2.2,Yes
2018/02/23,01:20,0.339,0.211,0.344,0.327,0.306,0.172,0.103,west,2.9,Yes
2018/02/23,01:30,0.338,0.210,0.346,0.327,0.307,0.171,0.104,west,1.9,Yes
2018/02/23,01:40,0.337,0.211,0.345,0.326,0.307,0.172,0.103,west-northwest,1.0,Yes
2018/02/23,01:50,0.339,0.210,0.346,0.327,0.307,0.172,0.103,north-northwest,0.8,Yes
2018/02/23,02:00,0.339,0.210,0.345,0.327,0.307,0.171,0.104,northwest,1.0,No
2018/02/23,02:10,0.337,0.210,0.345,0.327,0.306,0.172,0.103,northwest,1.6,No
2018/02/23,02:20,0.337,0.210,0.345,0.327,0.307,0.172,0.103,northwest,2.4,No
2018/02/23,02:30,0.337,0.210,0.344,0.327,0.307,0.171,0.102,northwest,2.5,No
2018/02/23,02:40,0.338,0.210,0.346,0.326,0.306,0.171,0.103,north-northwest,2.0,No
2018/02/23,02:50,0.338,0.210,0.344,0.328,0.306,0.172,0.102,northwest,2.2,Yes
2018/02/23,03:00,0.337,0.210,0.345,0.326,0.306,0.172,0.103,northwest,1.9,Yes
2018/02/23,03:10,0.338,0.210,0.343,0.327,0.306,0.171,0.103,northwest,1.6,Yes
2018/02/23,03:20,0.338,0.210,0.346,0.326,0.306,0.171,0.102,northwest,1.4,Yes
2018/02/23,03:30,0.337,0.211,0.347,0.328,0.308,0.172,0.104,northwest,1.4,Yes
2018/02/23,03:40,0.339,0.212,0.348,0.328,0.308,0.174,0.105,north-northwest,0.7,Yes
2018/02/23,03:50,0.340,0.213,0.346,0.327,0.309,0.174,0.105,northwest,0.8,Yes
2018/02/23,04:00,0.340,0.213,0.346,0.326,0.307,0.174,0.106,-,CALM,Yes
2018/02/23,04:10,0.340,0.212,0.347,0.330,0.309,0.173,0.106,west-northwest,1.2,Yes
2018/02/23,04:20,0.340,0.212,0.348,0.328,0.309,0.174,0.106,north-northwest,0.9,Yes
2018/02/23,04:30,0.339,0.212,0.345,0.328,0.308,0.174,0.105,north,1.4,Yes
2018/02/23,04:40,0.339,0.211,0.346,0.326,0.309,0.173,0.105,north-northwest,1.2,Yes
2018/02/23,04:50,0.340,0.211,0.345,0.327,0.305,0.172,0.105,north-northwest,0.6,Yes
2018/02/23,05:00,0.338,0.211,0.345,0.327,0.308,0.171,0.104,north,1.1,Yes
2018/02/23,05:10,0.338,0.212,0.346,0.326,0.307,0.173,0.103,north-northwest,1.1,Yes
2018/02/23,05:20,0.337,0.211,0.344,0.326,0.306,0.172,0.104,northwest,1.1,Yes
2018/02/23,05:30,0.338,0.210,0.345,0.326,0.305,0.172,0.104,west-northwest,1.2,Yes
2018/02/23,05:40,0.337,0.210,0.344,0.326,0.306,0.171,0.103,north,0.9,Yes
2018/02/23,05:50,0.338,0.210,0.344,0.326,0.306,0.171,0.103,north-northwest,1.3,Yes
2018/02/23,06:00,0.337,0.211,0.344,0.325,0.306,0.171,0.103,northwest,1.1,No
2018/02/23,06:10,0.336,0.210,0.345,0.325,0.305,0.171,0.102,northwest,1.4,No
2018/02/23,06:20,0.335,0.210,0.345,0.326,0.306,0.171,0.103,northwest,1.5,No
2018/02/23,06:30,0.337,0.209,0.344,0.325,0.306,0.171,0.103,northwest,2.0,No
2018/02/23,06:40,0.335,0.209,0.343,0.326,0.306,0.171,0.101,north-northwest,1.4,No
2018/02/23,06:50,0.336,0.210,0.343,0.325,0.304,0.171,0.102,north-northwest,1.2,No
2018/02/23,07:00,0.337,0.209,0.345,0.325,0.305,0.172,0.102,north-northwest,1.4,No
2018/02/23,07:10,0.337,0.208,0.344,0.326,0.305,0.171,0.102,north-northwest,0.7,No
2018/02/23,07:20,0.338,0.209,0.343,0.325,0.306,0.170,0.102,north,1.2,No
2018/02/23,07:30,0.337,0.208,0.344,0.325,0.305,0.171,0.101,north-northwest,1.2,No
2018/02/23,07:40,0.337,0.211,0.344,0.325,0.304,0.170,0.102,north-northwest,1.3,No
2018/02/23,07:50,0.337,0.209,0.343,0.326,0.305,0.170,0.102,north,0.6,No
2018/02/23,08:00,0.335,0.208,0.343,0.323,0.307,0.171,0.103,-,CALM,No
2018/02/23,08:10,0.336,0.210,0.343,0.325,0.304,0.171,0.103,northwest,0.8,Yes
2018/02/23,08:20,0.335,0.209,0.344,0.325,0.305,0.170,0.102,-,CALM,Yes
2018/02/23,08:30,0.335,0.209,0.346,0.324,0.306,0.170,0.101,southwest,1.5,Yes
2018/02/23,08:40,0.337,0.209,0.344,0.324,0.306,0.171,0.102,northeast,1.1,Yes
2018/02/23,08:50,0.336,0.210,0.343,0.326,0.305,0.170,0.103,north,0.8,Yes
2018/02/23,09:00,0.337,0.208,0.346,0.326,0.306,0.170,0.102,south,0.9,Yes
2018/02/23,09:10,0.335,0.208,0.344,0.324,0.306,0.171,0.102,east-northeast,1.8,Yes
2018/02/23,09:20,0.337,0.209,0.344,0.324,0.306,0.171,0.102,-,CALM,Yes
2018/02/23,09:30,0.337,0.209,0.344,0.325,0.304,0.170,0.102,-,CALM,No
2018/02/23,09:40,0.336,0.209,0.344,0.324,0.306,0.171,0.101,northwest,0.9,Yes
2018/02/23,09:50,0.337,0.209,0.345,0.325,0.307,0.171,0.103,north,0.6,Yes
2018/02/23,10:00,0.336,0.210,0.344,0.324,0.306,0.169,0.102,-,CALM,Yes
2018/02/23,10:10,0.336,0.208,0.344,0.325,0.304,0.171,0.102,north-northwest,1.1,Yes
2018/02/23,10:20,0.336,0.209,0.345,0.324,0.307,0.172,0.103,northwest,0.7,Yes
2018/02/23,10:30,0.338,0.209,0.345,0.323,0.307,0.172,0.102,west-northwest,0.7,Yes
2018/02/23,10:40,0.336,0.209,0.343,0.324,0.305,0.171,0.102,north,1.5,Yes
2018/02/23,10:50,0.337,0.208,0.342,0.324,0.306,0.171,0.102,north,1.4,Yes
2018/02/23,11:00,0.337,0.209,0.343,0.325,0.307,0.171,0.102,north-northwest,0.7,No
2018/02/23,11:10,0.337,0.208,0.343,0.324,0.305,0.171,0.103,east,1.0,No
2018/02/23,11:20,0.335,0.208,0.342,0.325,0.305,0.171,0.100,-,CALM,No
2018/02/23,11:30,0.336,0.208,0.341,0.323,0.304,0.170,0.102,east-southeast,1.3,No
2018/02/23,11:40,0.337,0.209,0.344,0.324,0.305,0.170,0.101,east-southeast,1.3,No
2018/02/23,11:50,0.335,0.208,0.343,0.326,0.306,0.171,0.102,south-southeast,1.9,No
2018/02/23,12:00,0.337,0.209,0.343,0.325,0.304,0.170,0.102,east-southeast,1.8,No
2018/02/23,12:10,0.336,0.209,0.342,0.324,0.307,0.170,0.101,southeast,2.2,No
2018/02/23,12:20,0.334,0.208,0.343,0.322,0.304,0.170,0.102,southeast,2.7,No
2018/02/23,12:30,0.334,0.209,0.341,0.322,0.306,0.170,0.102,southeast,3.3,No
2018/02/23,12:40,0.334,0.209,0.340,0.325,0.306,0.171,0.101,southeast,3.9,No
2018/02/23,12:50,0.337,0.208,0.343,0.325,0.304,0.171,0.102,south-southeast,3.5,No
2018/02/23,13:00,0.333,0.208,0.341,0.325,0.307,0.170,0.103,south-southeast,3.6,No
2018/02/23,13:10,0.338,0.208,0.344,0.325,0.304,0.171,0.101,southeast,3.1,No
2018/02/23,13:20,0.335,0.208,0.342,0.324,0.308,0.171,0.101,southeast,3.5,No
2018/02/23,13:30,0.336,0.209,0.341,0.325,0.306,0.170,0.101,southeast,2.2,No
2018/02/23,13:40,0.335,0.209,0.343,0.326,0.307,0.170,0.102,east,2.2,Yes
2018/02/23,13:50,0.337,0.210,0.344,0.325,0.308,0.170,0.103,southeast,3.8,Yes
2018/02/23,14:00,0.338,0.211,0.346,0.327,0.307,0.172,0.102,south-southeast,3.9,Yes
2018/02/23,14:10,0.337,0.210,0.346,0.330,0.309,0.171,0.102,south-southeast,3.5,Yes
2018/02/23,14:20,0.339,0.211,0.345,0.328,0.310,0.173,0.103,south-southeast,4.3,No
2018/02/23,14:30,0.337,0.210,0.345,0.328,0.308,0.172,0.103,south-southeast,3.0,Yes
2018/02/23,14:40,0.337,0.209,0.346,0.327,0.308,0.173,0.103,south,2.3,No
2018/02/23,14:50,0.338,0.209,0.345,0.327,0.306,0.171,0.102,south-southeast,2.0,No
2018/02/23,15:00,0.337,0.209,0.344,0.327,0.308,0.172,0.103,south,2.9,No
2018/02/23,15:10,0.337,0.210,0.345,0.327,0.307,0.171,0.103,south-southeast,2.6,No
2018/02/23,15:20,0.337,0.210,0.344,0.326,0.306,0.171,0.101,south-southeast,3.4,No
2018/02/23,15:30,0.337,0.210,0.344,0.326,0.307,0.171,0.103,south-southeast,1.9,No
2018/02/23,15:40,0.337,0.210,0.343,0.324,0.307,0.170,0.102,east-southeast,0.9,No
2018/02/23,15:50,0.337,0.209,0.346,0.327,0.307,0.172,0.103,south-southeast,1.2,No
2018/02/23,16:00,0.338,0.209,0.344,0.327,0.306,0.171,0.101,south-southeast,0.6,No
2018/02/23,16:10,0.338,0.209,0.343,0.325,0.307,0.170,0.102,south-southeast,2.0,No
2018/02/23,16:20,0.337,0.209,0.344,0.325,0.306,0.171,0.102,-,CALM,No
2018/02/23,16:30,0.338,0.209,0.343,0.326,0.306,0.172,0.101,south-southwest,1.0,No
2018/02/23,16:40,0.337,0.209,0.344,0.326,0.306,0.170,0.102,south,1.3,No
2018/02/23,16:50,0.335,0.209,0.343,0.325,0.306,0.171,0.103,south,1.5,No
2018/02/23,17:00,0.335,0.210,0.343,0.324,0.307,0.172,0.102,south,2.7,No
2018/02/23,17:10,0.336,0.209,0.347,0.326,0.307,0.171,0.102,south,3.9,No
2018/02/23,17:20,0.339,0.208,0.343,0.326,0.307,0.171,0.102,southwest,1.6,No
2018/02/23,17:30,0.336,0.209,0.342,0.325,0.306,0.171,0.102,south-southwest,1.7,No
2018/02/23,17:40,0.337,0.209,0.343,0.325,0.306,0.171,0.102,south-southwest,3.1,No
2018/02/23,17:50,0.337,0.209,0.344,0.326,0.306,0.171,0.102,west,4.4,No
2018/02/23,18:00,0.338,0.210,0.345,0.325,0.307,0.171,0.102,west,4.8,No
2018/02/23,18:10,0.338,0.209,0.344,0.327,0.308,0.172,0.102,west-southwest,3.7,No
2018/02/23,18:20,0.338,0.208,0.344,0.327,0.306,0.172,0.102,northeast,0.6,No
2018/02/23,18:30,0.338,0.209,0.345,0.326,0.306,0.171,0.102,-,CALM,No
2018/02/23,18:40,0.338,0.210,0.345,0.325,0.306,0.171,0.102,west,4.1,No
2018/02/23,18:50,0.338,0.209,0.344,0.327,0.305,0.172,0.102,northwest,3.9,No
2018/02/23,19:00,0.338,0.209,0.343,0.326,0.306,0.172,0.102,west-northwest,2.6,No
2018/02/23,19:10,0.337,0.209,0.345,0.326,0.306,0.172,0.101,northwest,1.5,No
2018/02/23,19:20,0.336,0.209,0.345,0.326,0.305,0.171,0.102,west-southwest,1.6,No
2018/02/23,19:30,0.339,0.209,0.344,0.327,0.306,0.170,0.102,south-southwest,1.4,No
2018/02/23,19:40,0.337,0.209,0.344,0.326,0.307,0.172,0.103,west-southwest,1.8,No
2018/02/23,19:50,0.337,0.210,0.344,0.327,0.307,0.171,0.101,southwest,1.6,No
2018/02/23,20:00,0.337,0.210,0.344,0.326,0.305,0.172,0.101,west-southwest,1.3,No
2018/02/23,20:10,0.338,0.210,0.344,0.326,0.306,0.171,0.102,-,CALM,No
2018/02/23,20:20,0.339,0.209,0.343,0.324,0.307,0.171,0.102,south,0.7,No
2018/02/23,20:30,0.338,0.210,0.344,0.327,0.307,0.172,0.102,south-southwest,1.4,No
2018/02/23,20:40,0.337,0.209,0.343,0.326,0.306,0.172,0.102,southwest,1.5,No
2018/02/23,20:50,0.338,0.209,0.345,0.326,0.306,0.172,0.102,south-southwest,0.8,No
2018/02/23,21:00,0.337,0.210,0.345,0.325,0.308,0.171,0.102,southeast,1.2,No
2018/02/23,21:10,0.337,0.210,0.344,0.326,0.306,0.171,0.101,south,1.7,No
2018/02/23,21:20,0.338,0.208,0.344,0.324,0.305,0.171,0.102,south,1.8,No
2018/02/23,21:30,0.337,0.209,0.345,0.326,0.306,0.172,0.103,south-southwest,2.4,No
2018/02/23,21:40,0.338,0.210,0.344,0.326,0.307,0.171,0.103,southwest,3.2,No
2018/02/23,21:50,0.337,0.209,0.344,0.327,0.306,0.171,0.102,west,2.0,No
2018/02/23,22:00,0.338,0.209,0.345,0.328,0.307,0.173,0.103,west,3.7,No
2018/02/23,22:10,0.337,0.209,0.346,0.326,0.305,0.171,0.102,west,7.5,No
2018/02/23,22:20,0.338,0.210,0.345,0.325,0.306,0.172,0.102,west,7.7,No
2018/02/23,22:30,0.338,0.210,0.345,0.326,0.306,0.171,0.103,west-southwest,6.4,No
2018/02/23,22:40,0.338,0.208,0.346,0.327,0.307,0.172,0.103,west,8.6,No
2018/02/23,22:50,0.337,0.210,0.344,0.328,0.306,0.171,0.103,west,7.1,No
2018/02/23,23:00,0.338,0.209,0.346,0.327,0.306,0.171,0.102,west,6.8,No
2018/02/23,23:10,0.340,0.209,0.344,0.326,0.307,0.172,0.102,west,5.0,No
2018/02/23,23:20,0.337,0.209,0.345,0.325,0.307,0.172,0.103,west-northwest,3.6,No
2018/02/23,23:30,0.336,0.209,0.345,0.327,0.305,0.172,0.103,west-northwest,3.5,No
2018/02/23,23:40,0.337,0.209,0.345,0.326,0.306,0.171,0.102,west-northwest,2.1,No
2018/02/23,23:50,0.337,0.209,0.344,0.327,0.307,0.172,0.102,west-northwest,1.7,No
